Miscellaneous Local Product
Issued by NWS Hastings, NE

Home | Current Version | Previous Version | Text Only | Print | Product List | Glossary Off
Versions: 1 2 3 4 5 6 7 8 9 10 11 12 13 14 15 16 17 18 19 20 21 22 23 24 25 26 27 28 29 30 31 32 33 34 35 36 37 38 39 40 41 42 43 44 45 46 47 48 49 50

459
AXUS43 KGID 070602
MISGRI

GID CWA HOURLY WEATHER ROUNDUP
NATIONAL WEATHER SERVICE HASTINGS NE
1200 AM CST SUN FEB 07 2016

NOTE: "FAIR" INDICATES FEW OR NO CLOUDS BELOW 12,000 FEET WITH NO
SIGNIFICANT WEATHER AND/OR OBSTRUCTIONS TO VISIBILITY.

...SOUTH CENTRAL NEBRASKA...

CITY           SKY/WX    TMP DP  RH WIND       PRES   REMARKS
GRAND ISLAND   CLOUDY    33  25  72 W10       29.97R WCI  25
HASTINGS       CLOUDY    35  26  69 W16       29.98R WCI  25
ORD            CLEAR     36  28  73 NW12      29.96R WCI  28
YORK           CLOUDY    32  28  86 W13       29.94S WCI  22
AURORA         CLOUDY    35  28  75 W18       29.95F WCI  24
LEXINGTON      CLOUDY    36  27  71 NW17      30.03R WCI  26
HOLDREGE       CLOUDY    36  26  65 W14G20    30.01R WCI  27
HEBRON         CLOUDY    35  28  76 SW14      29.98S WCI  26

...NEBRASKA PANHANDLE...

CITY           SKY/WX    TMP DP  RH WIND       PRES   REMARKS
CHADRON        MOCLDY    33  24  69 W15       30.10R WCI  23
ALLIANCE       CLEAR     25  19  78 W14       30.09  WCI  13
SCOTTSBLUFF    CLOUDY    32  23  69 W10       30.12S WCI  24
SIDNEY         CLOUDY    33  24  69 N10       30.14R WCI  25

...WESTERN AND NORTH CENTRAL NEBRASKA...

CITY           SKY/WX    TMP DP  RH WIND       PRES   REMARKS
VALENTINE      CLOUDY    40  23  50 NW15G24   30.00R WCI  32
AINSWORTH      PTCLDY    39  26  61 NW12      29.99R WCI  32
ONEILL         CLOUDY    40  28  63 NW13      29.94R WCI  32
BROKEN BOW     CLEAR     39  27  62 NW17      30.00R WCI  30
IMPERIAL       CLOUDY    31  23  72 NW9       30.11R WCI  23
NORTH PLATTE   CLOUDY    35  26  69 NW14      30.06R WCI  26
MCCOOK         CLOUDY    37  26  64 W9        30.09R WCI  30

...EASTERN NEBRASKA...

CITY           SKY/WX    TMP DP  RH WIND       PRES   REMARKS
NORFOLK        CLEAR     32  26  78 W7        29.91R WCI  26
SO SIOUX CITY  CLOUDY    28  22  78 CALM      29.88F
TEKAMAH        CLOUDY    34  26  72 SW5       29.92S WCI  30
COLUMBUS       CLOUDY    32  19  59 W7        29.93S WCI  26
ALBION         CLOUDY    37  28  71 NW17      29.93S WCI  27
OMAHA EPPLEY   CLOUDY    39  28  64 VRB3G21   29.94R
OFFUTT AFB     CLOUDY    37  28  70 SW3       29.94R
MILLARD        CLOUDY    38  28  67 W7        29.94R WCI  33
LINCOLN        CLOUDY    37  28  70 W14       29.96R WCI  28
NEBRASKA CITY  CLOUDY    35  28  75 SW14      29.94F WCI  26
BEATRICE       CLOUDY    34  27  77 SW6       29.98R WCI  29
FALLS CITY     CLOUDY    37  27  67 S14       29.98F WCI  28

...NORTHERN KANSAS...

CITY           SKY/WX    TMP DP  RH WIND       PRES   REMARKS
GOODLAND       CLOUDY    33  24  69 N9        30.11R WCI  25
HILL CITY      CLOUDY    37  27  67 W12       30.06R WCI  29
NORTON         CLEAR     37  25  60 W21G26    30.06R WCI  27
PHILLIPSBURG   CLOUDY    41  28  60 W16       30.04R
BELOIT         CLEAR     34  27  75 SW9       30.02S WCI  26
HAYS           CLOUDY    36  18  48 W12G18    30.04F WCI  27
RUSSELL        CLOUDY    35  25  66 SW17      30.01F WCI  25
CONCORDIA      CLOUDY    39  22  50 W12       30.00S WCI  32
SALINA         CLEAR     40  22  48 S14       30.05F WCI  32
TOPEKA         CLOUDY    41  26  55 S9G24     30.07F



USA.gov is the U.S. government's official web portal to all federal, state and local government web resources and services.